| time (UTC) | temp C | wind direction | speed KPH | gust KPH | rain 1hr cm | rain 24hr cm | rain mn cm | humidity % | barometer mb |
| 20260505041042 | 23 | 169 | 8.0 | 24.1 | 0.00 | 0.00 | 0.00 | 68 | 1006.6 |
| 20260505040017 | 23 | 170 | 6.4 | 20.9 | 0.00 | 0.00 | 0.00 | 68 | 1006.7 |
| 20260505035027 | 23 | 173 | 8.0 | 20.9 | 0.00 | 0.00 | 0.00 | 68 | 1006.7 |
| 20260505034026 | 23 | 170 | 9.7 | 25.7 | 0.00 | 0.00 | 0.00 | 68 | 1006.4 |
| 20260505033021 | 23 | 167 | 8.0 | 25.7 | 0.00 | 0.00 | 0.00 | 68 | 1006.5 |
| 20260505032028 | 23 | 164 | 8.0 | 17.7 | 0.00 | 0.00 | 0.00 | 68 | 1006.5 |
| 20260505031045 | 23 | 169 | 8.0 | 20.9 | 0.00 | 0.00 | 0.00 | 67 | 1006.8 |
| 20260505030022 | 23 | 168 | 8.0 | 17.7 | 0.00 | 0.00 | 0.00 | 67 | 1006.6 |
| 20260505025017 | 23 | 160 | 9.7 | 22.5 | 0.00 | 0.00 | 0.00 | 67 | 1006.5 |
| 20260505024027 | 23 | 158 | 8.0 | 20.9 | 0.00 | 0.00 | 0.00 | 67 | 1006.4 |
| 20260505023021 | 23 | 165 | 8.0 | 20.9 | 0.00 | 0.00 | 0.00 | 66 | 1006.3 |
| 20260505022016 | 24 | 172 | 9.7 | 24.1 | 0.00 | 0.00 | 0.00 | 65 | 1006.2 |
| 20260505021026 | 24 | 148 | 6.4 | 27.4 | 0.00 | 0.00 | 0.00 | 65 | 1006.3 |
| 20260505020041 | 24 | 170 | 8.0 | 22.5 | 0.00 | 0.00 | 0.00 | 64 | 1006.2 |
| 20260505015056 | 24 | 148 | 8.0 | 29.0 | 0.00 | 0.00 | 0.00 | 64 | 1006.3 |
| 20260505014025 | 25 | 151 | 6.4 | 17.7 | 0.00 | 0.00 | 0.00 | 63 | 1006.3 |
| 20260505013020 | 25 | 155 | 4.8 | 16.1 | 0.00 | 0.00 | 0.00 | 62 | 1006.2 |
| 20260505012029 | 25 | 144 | 6.4 | 12.9 | 0.00 | 0.00 | 0.00 | 61 | 1006.2 |
| 20260505011024 | 25 | 163 | 6.4 | 16.1 | 0.00 | 0.00 | 0.00 | 60 | 1006.2 |
| 20260505010019 | 25 | 158 | 4.8 | 16.1 | 0.00 | 0.00 | 0.00 | 60 | 1006.3 |
| 20260505005029 | 26 | 157 | 8.0 | 17.7 | 0.00 | 0.00 | 0.00 | 59 | 1006.2 |
| 20260505004044 | 26 | 167 | 8.0 | 29.0 | 0.00 | 0.00 | 0.00 | 58 | 1006.4 |
| 20260505003019 | 26 | 140 | 6.4 | 20.9 | 0.00 | 0.00 | 0.00 | 57 | 1006.4 |
| 20260505002050 | 26 | 160 | 8.0 | 24.1 | 0.00 | 0.00 | 0.00 | 55 | 1006.5 |
| 20260505001024 | 27 | 157 | 9.7 | 20.9 | 0.00 | 0.00 | 0.00 | 54 | 1006.7 |
| 20260505000020 | 27 | 171 | 8.0 | 20.9 | 0.00 | 0.00 | 0.00 | 53 | 1006.9 |
| 20260504235030 | 27 | 180 | 11.3 | 27.4 | 0.00 | 0.00 | 0.00 | 53 | 1006.7 |
| 20260504234025 | 28 | 178 | 9.7 | 25.7 | 0.00 | 0.00 | 0.00 | 52 | 1006.9 |
| 20260504233019 | 28 | 171 | 8.0 | 30.6 | 0.00 | 0.00 | 0.00 | 51 | 1006.9 |
| 20260504232030 | 28 | 161 | 11.3 | 29.0 | 0.00 | 0.00 | 0.00 | 50 | 1007.0 |
| 20260504231024 | 28 | 168 | 9.7 | 29.0 | 0.00 | 0.00 | 0.00 | 49 | 1007.0 |
| 20260504230019 | 28 | 159 | 11.3 | 29.0 | 0.00 | 0.00 | 0.00 | 49 | 1007.2 |
| 20260504225029 | 29 | 154 | 8.0 | 25.7 | 0.00 | 0.00 | 0.00 | 48 | 1007.2 |
| 20260504224024 | 28 | 150 | 14.5 | 27.4 | 0.00 | 0.00 | 0.00 | 48 | 1007.4 |
| 20260504223020 | 29 | 162 | 12.9 | 29.0 | 0.00 | 0.00 | 0.00 | 48 | 1007.5 |
| 20260504222015 | 29 | 152 | 12.9 | 33.8 | 0.00 | 0.00 | 0.00 | 48 | 1007.4 |
| 20260504221025 | 28 | 155 | 14.5 | 33.8 | 0.00 | 0.00 | 0.00 | 47 | 1007.4 |
| 20260504220021 | 29 | 159 | 12.9 | 33.8 | 0.00 | 0.00 | 0.00 | 47 | 1007.7 |
| 20260504215036 | 30 | 164 | 14.5 | 33.8 | 0.00 | 0.00 | 0.00 | 46 | 1007.7 |
| 20260504214026 | 30 | 185 | 12.9 | 41.8 | 0.00 | 0.00 | 0.00 | 45 | 1007.8 |
| 20260504213021 | 30 | 168 | 12.9 | 33.8 | 0.00 | 0.00 | 0.00 | 45 | 1007.9 |
| 20260504212016 | 30 | 161 | 11.3 | 30.6 | 0.00 | 0.00 | 0.00 | 45 | 1008.0 |
| 20260504211027 | 30 | 162 | 11.3 | 27.4 | 0.00 | 0.00 | 0.00 | 45 | 1008.2 |
| 20260504210022 | 30 | 168 | 12.9 | 35.4 | 0.00 | 0.00 | 0.00 | 45 | 1008.5 |
| 20260504205037 | 30 | 161 | 11.3 | 29.0 | 0.00 | 0.00 | 0.00 | 45 | 1008.7 |
| 20260504204028 | 30 | 149 | 11.3 | 27.4 | 0.00 | 0.00 | 0.00 | 45 | 1008.7 |
| 20260504203023 | 30 | 144 | 12.9 | 29.0 | 0.00 | 0.00 | 0.00 | 45 | 1009.0 |
| 20260504202018 | 30 | 151 | 9.7 | 29.0 | 0.00 | 0.00 | 0.00 | 44 | 1009.2 |
| 20260504201028 | 30 | 157 | 9.7 | 29.0 | 0.00 | 0.00 | 0.00 | 44 | 1009.5 |
| 20260504200023 | 30 | 147 | 9.7 | 24.1 | 0.00 | 0.00 | 0.00 | 45 | 1009.9 |
| 20260504195018 | 30 | 178 | 11.3 | 27.4 | 0.00 | 0.00 | 0.00 | 45 | 1010.0 |
| 20260504194028 | 30 | 167 | 11.3 | 24.1 | 0.00 | 0.00 | 0.00 | 45 | 1010.1 |
| 20260504193023 | 29 | 154 | 12.9 | 37.0 | 0.00 | 0.00 | 0.00 | 45 | 1010.3 |
| 20260504192018 | 30 | 162 | 9.7 | 30.6 | 0.00 | 0.00 | 0.00 | 44 | 1010.2 |
| 20260504191028 | 30 | 158 | 14.5 | 30.6 | 0.00 | 0.00 | 0.00 | 44 | 1010.6 |
| 20260504190023 | 29 | 186 | 12.9 | 33.8 | 0.00 | 0.00 | 0.00 | 45 | 1010.8 |
| 20260504185018 | 29 | 148 | 12.9 | 29.0 | 0.00 | 0.00 | 0.00 | 45 | 1010.7 |
| 20260504184049 | 29 | 148 | 9.7 | 27.4 | 0.00 | 0.00 | 0.00 | 45 | 1010.8 |
| 20260504183024 | 29 | 160 | 9.7 | 27.4 | 0.00 | 0.00 | 0.00 | 45 | 1010.9 |
| 20260504182039 | 28 | 171 | 9.7 | 30.6 | 0.00 | 0.00 | 0.00 | 45 | 1011.2 |
| 20260504181029 | 28 | 163 | 11.3 | 29.0 | 0.00 | 0.00 | 0.00 | 45 | 1011.4 |
| 20260504180024 | 28 | 182 | 14.5 | 33.8 | 0.00 | 0.00 | 0.00 | 45 | 1011.4 |
| 20260504175020 | 28 | 161 | 14.5 | 46.7 | 0.00 | 0.00 | 0.00 | 44 | 1011.6 |
| 20260504174015 | 28 | 161 | 12.9 | 29.0 | 0.00 | 0.00 | 0.00 | 45 | 1011.7 |
| 20260504173045 | 27 | 169 | 11.3 | 24.1 | 0.00 | 0.00 | 0.00 | 45 | 1011.8 |
| 20260504172020 | 27 | 174 | 11.3 | 33.8 | 0.00 | 0.00 | 0.00 | 45 | 1012.1 |
| 20260504171015 | 27 | 168 | 11.3 | 27.4 | 0.00 | 0.00 | 0.00 | 45 | 1012.2 |
| 20260504151018 | 23 | 174 | 8.0 | 24.1 | 0.00 | 0.00 | 0.00 | 54 | 1013.5 |
| 20260504141020 | 27 | 182 | 9.7 | 20.9 | 0.00 | 0.00 | 0.00 | 43 | 1013.9 |
| 20260504081028 | 16 | 180 | 8.0 | 20.9 | 0.00 | 0.00 | 0.00 | 69 | 1014.4 |
| 20260504045023 | 18 | 171 | 6.4 | 16.1 | 0.00 | 0.00 | 0.00 | 59 | 1016.2 |
| 20260504044018 | 18 | 168 | 6.4 | 16.1 | 0.00 | 0.00 | 0.00 | 59 | 1016.3 |
| 20260504043028 | 18 | 164 | 4.8 | 12.9 | 0.00 | 0.00 | 0.00 | 58 | 1016.3 |
| 20260504042022 | 18 | 167 | 3.2 | 6.4 | 0.00 | 0.00 | 0.00 | 57 | 1016.4 |